Weather History for KODX - May, 2014

Change the Weather History Date:

Saturday, May 31, 2014

  Actual Average Record
Temperature  
Mean Temperature 73 °F 64 °F  
Max Temperature 81 °F 77 °F 90 °F (2002)
Min Temperature 64 °F 53 °F 40 °F (2012)
Degree Days  
Heating Degree Days 0    
Month to date heating degree days 256  
Cooling Degree Days 8    
Month to date cooling degree days 68  
Year to date cooling degree days 69  
Growing Degree Days 22 (Base 50)    
Moisture  
Dew Point 62 °F    
Average Humidity 69    
Maximum Humidity 87    
Minimum Humidity 51    
Precipitation  
Precipitation 0.02 in 0.15 in 1.49 in (1996)
Month to date precipitation 0.51 3.81  
Year to date precipitation 2.22 8.66  
Sea Level Pressure  
Sea Level Pressure 29.93 in    
Wind  
Wind Speed 7 mph (SSE)    
Max Wind Speed 16 mph    
Max Gust Speed 22 mph    
Visibility 10 miles    
Events Rain    
T = Trace of Precipitation, MM = Missing Value Source: NWS Daily Summary

Daily Weather History Graph

Daily Weather History Graph

Search for Another Location

Airport or City:

Trip Planner

Search our weather history database for the weather conditions in past years. The results will help you decide how hot, cold, wet, or windy it might be!

Date:

Astronomy

May. 31, 2014 Rise Set
Actual Time 6:04 AM CDT 9:02 PM CDT
Civil Twilight 5:31 AM CDT 9:36 PM CDT
Nautical Twilight 4:49 AM CDT 10:18 PM CDT
Astronomical Twilight 3:59 AM CDT 11:08 PM CDT
Moon 8:44 AM CDT (5/31) 11:20 PM CDT (5/31)
Length of Visible Light 16h 05m
Length of Day
14h 58m
Waxing Crescent, 8% of the Moon is Illuminated
May 31
Waxing Crescent
Jun 5
First Quarter
Jun 12
Full
Jun 19
Last Quarter
Jun 27
New

Hourly Weather History & Observations

Time (CDT) Temp. Heat Index Dew Point Humidity Pressure Visibility Wind Dir Wind Speed Gust Speed Precip Events Conditions
12:53 AM 72.0 °F - 59.0 °F 64% 29.99 in 10.0 mi SSE 9.2 mph - N/A   Partly Cloudy
1:53 AM 72.0 °F - 59.0 °F 64% 29.97 in 10.0 mi South 12.7 mph - N/A   Clear
2:53 AM 69.1 °F - 59.0 °F 70% 29.98 in 10.0 mi SSE 6.9 mph - N/A   Clear
3:53 AM 68.0 °F - 59.0 °F 73% 30.02 in 10.0 mi South 6.9 mph - N/A   Partly Cloudy
4:53 AM 66.0 °F - 59.0 °F 78% 29.99 in 10.0 mi SSW 8.1 mph - N/A   Partly Cloudy
5:53 AM 64.9 °F - 59.0 °F 81% 29.98 in 10.0 mi SSE 3.5 mph - N/A   Clear
6:53 AM 64.9 °F - 60.1 °F 84% 29.99 in 10.0 mi SE 4.6 mph - N/A   Clear
7:53 AM 68.0 °F - 61.0 °F 78% 29.99 in 10.0 mi South 4.6 mph - N/A   Clear
8:53 AM 70.0 °F - 61.0 °F 73% 29.99 in 10.0 mi South 5.8 mph - N/A   Mostly Cloudy
9:53 AM 77.0 °F - 60.8 °F 57% 30.01 in 10.0 mi Variable 3.5 mph - N/A   Clear
10:53 AM 77.0 °F - 60.1 °F 56% 29.97 in 10.0 mi SW 5.8 mph - N/A   Mostly Cloudy
11:53 AM 78.1 °F - 60.1 °F 54% 29.96 in 10.0 mi SSW 9.2 mph - N/A   Partly Cloudy
12:53 PM 79.0 °F - 61.0 °F 54% 29.95 in 10.0 mi SSE 10.4 mph - N/A   Overcast
1:53 PM 78.1 °F - 61.0 °F 56% 29.94 in 10.0 mi SSE 10.4 mph - N/A   Scattered Clouds
2:53 PM 73.9 °F - 66.0 °F 76% 29.93 in 10.0 mi South 5.8 mph - 0.00 in Rain Light Rain
3:53 PM 70.0 °F - 64.9 °F 84% 29.92 in 9.0 mi WSW 4.6 mph - 0.02 in Rain Light Rain
4:53 PM 73.9 °F - 66.0 °F 76% 29.89 in 10.0 mi ESE 8.1 mph - 0.00 in   Scattered Clouds
5:53 PM 78.8 °F - 66.2 °F 65% 29.88 in 10.0 mi ESE 5.8 mph - N/A   Clear
6:53 PM 81.0 °F 81.7 °F 61.0 °F 50% 29.83 in 10.0 mi South 11.5 mph - N/A   Scattered Clouds
7:53 PM 80.1 °F 81.2 °F 62.1 °F 54% 29.82 in 10.0 mi SE 9.2 mph - N/A   Mostly Cloudy
8:53 PM 75.0 °F - 64.9 °F 71% 29.83 in 10.0 mi ESE 8.1 mph - N/A   Mostly Cloudy
9:53 PM 73.0 °F - 64.9 °F 76% 29.84 in 10.0 mi East 4.6 mph - N/A   Mostly Cloudy
10:53 PM 70.0 °F - 63.0 °F 78% 29.85 in 10.0 mi NE 3.5 mph - N/A   Mostly Cloudy
11:53 PM 72.0 °F - 61.0 °F 68% 29.85 in 10.0 mi SSE 9.2 mph - N/A   Clear